Weather History for Beckley, WV

Change the Weather History Date:

Friday, October 26, 2012

  Actual Average Record
Temperature  
Mean Temperature 66 °F 50 °F  
Max Temperature 75 °F 61 °F 81 °F (1919)
Min Temperature 56 °F 40 °F 18 °F (1962)
Degree Days  
Heating Degree Days 0 15  
Month to date heating degree days 272 296  
Since 1 July heating degree days 390 430  
Cooling Degree Days 1 0  
Month to date cooling degree days 3 2  
Year to date cooling degree days 761 552  
Growing Degree Days 15 (Base 50)    
Moisture  
Dew Point 50 °F    
Average Humidity 61    
Maximum Humidity 80    
Minimum Humidity 41    
Precipitation  
Precipitation 0.00 in 0.09 in 1.02 in (1981)
Month to date precipitation 1.68 2.12  
Year to date precipitation 37.69 34.79  
Snow  
Snow 0.00 in - - ()
Month to date snowfall 0.0  
Since 1 September snowfall 0.0  
Snow Depth 0.00 in    
Sea Level Pressure  
Sea Level Pressure 30.03 in    
Wind  
Wind Speed 4 mph (SSE)    
Max Wind Speed 12 mph    
Max Gust Speed 17 mph    
Visibility 10 miles    
Events      
T = Trace of Precipitation, MM = Missing Value Source: NWS Daily Summary

Daily Weather History Graph

Daily Weather History Graph

Search for Another Location

Airport:

Trip Planner

Search our weather history database for the weather conditions in past years. The results will help you decide how hot, cold, wet, or windy it might be!

Date:

Astronomy

Oct. 26, 2012 Rise Set
Actual Time 7:44 AM EDT 6:32 PM EDT
Civil Twilight 7:17 AM EDT 6:58 PM EDT
Nautical Twilight 6:46 AM EDT 7:29 PM EDT
Astronomical Twilight 6:15 AM EDT 8:00 PM EDT
Moon 4:45 PM EDT (10/26) 4:41 AM EDT (10/26)
Length of Visible Light 11h 41m
Length of Day
10h 47m
Waxing Gibbous, 91% of the Moon is Illuminated
Oct 26
Waxing Gibbous
Oct 29
Full
Nov 6
Last Quarter
Nov 13
New
Nov 20
First Quarter

Hourly Weather History & Observations

Time (EDT) Temp. Dew Point Humidity Pressure Visibility Wind Dir Wind Speed Gust Speed Precip Events Conditions
12:51 AM 59.0 °F 48.9 °F 69% 30.06 in 10.0 mi SSE 3.5 mph - N/A   Clear
1:51 AM 57.0 °F 48.9 °F 74% 30.06 in 10.0 mi SE 4.6 mph - N/A   Clear
2:51 AM 57.0 °F 50.0 °F 77% 30.06 in 10.0 mi SSE 3.5 mph - N/A   Clear
3:51 AM 57.9 °F 50.0 °F 75% 30.06 in 10.0 mi SSE 4.6 mph - N/A   Clear
4:51 AM 57.9 °F 51.1 °F 78% 30.06 in 10.0 mi SSE 6.9 mph - N/A   Clear
5:51 AM 57.0 °F 51.1 °F 81% 30.08 in 10.0 mi South 5.8 mph - N/A   Clear
6:51 AM 57.0 °F 51.1 °F 81% 30.09 in 10.0 mi SSE 5.8 mph - N/A   Partly Cloudy
7:51 AM 57.0 °F 51.1 °F 81% 30.10 in 10.0 mi SSE 5.8 mph - N/A   Clear
8:51 AM 59.0 °F 53.1 °F 81% 30.11 in 10.0 mi SSE 6.9 mph - N/A   Mostly Cloudy
9:51 AM 63.0 °F 54.0 °F 72% 30.11 in 10.0 mi SSE 3.5 mph - N/A   Partly Cloudy
10:51 AM 66.9 °F 54.0 °F 63% 30.10 in 10.0 mi Variable 3.5 mph - N/A   Scattered Clouds
11:51 AM 70.0 °F 51.1 °F 51% 30.08 in 10.0 mi Calm Calm - N/A   Clear
12:51 PM 72.0 °F 50.0 °F 46% 30.05 in 10.0 mi Calm Calm - N/A   Mostly Cloudy
1:51 PM 70.0 °F 50.0 °F 49% 30.03 in 10.0 mi Variable 3.5 mph - N/A   Clear
2:51 PM 72.0 °F 50.0 °F 46% 30.00 in 10.0 mi SW 3.5 mph - N/A   Partly Cloudy
3:51 PM 73.9 °F 48.9 °F 41% 29.97 in 10.0 mi Calm Calm - N/A   Partly Cloudy
4:51 PM 72.0 °F 48.9 °F 44% 29.96 in 10.0 mi SSW 3.5 mph - N/A   Scattered Clouds
5:51 PM 71.1 °F 48.0 °F 44% 29.96 in 10.0 mi Calm Calm - N/A   Mostly Cloudy
6:51 PM 68.0 °F 48.0 °F 49% 29.98 in 10.0 mi Calm Calm - N/A   Partly Cloudy
7:51 PM 69.1 °F 48.0 °F 47% 29.99 in 10.0 mi NE 3.5 mph - N/A   Overcast
8:51 PM 64.9 °F 48.9 °F 56% 29.99 in 10.0 mi SE 6.9 mph - N/A   Mostly Cloudy
9:51 PM 63.0 °F 50.0 °F 63% 29.99 in 10.0 mi SSE 6.9 mph 17.3 mph N/A   Clear
10:51 PM 60.1 °F 50.0 °F 69% 29.96 in 10.0 mi SE 9.2 mph - N/A   Clear
11:51 PM 59.0 °F 50.0 °F 72% 29.95 in 10.0 mi SE 3.5 mph - N/A   Clear